Погода в Белом Колодце

Россия / Калужская область     53°37′21″N   34°56′43″E
темп.,
°C
ветер,
м/с
пор.,
м/с
влажн.,
%
обл.,
%
осадки,
мм/ч
давл.,
гПа
погр.,
м
26 июля, пн
пн2600:00+18юв226923 0.0 102236
03:00+16ю228170 0.0 102223
06:00+16ю228333 0.0 102329
09:00+22ююз23602 0.0 1023414
12:00+26ююз23444 0.0 10231580
15:00+26ююз2250100 0.0 10221291
18:00+23ююв2462100 0.0 1022181
21:00+19юв33781 0.1 102241
27 июля, вт
вт2700:00+17ююз22835 0.2 102312
03:00+16ю2284100 0.2 102311
06:00+16ююв119047 1.1 102311
09:00+21ююв22716 2.0 1023242
12:00+27ююз224426 0.0 10221354
15:00+28ююз234087 0.0 10202228
18:00+27ю345012 0.0 1019577
21:00+22ююв236240 0.0 101965
28 июля, ср
ср2800:00+18юв347254 0.0 101951
03:00+19ю2667100 0.0 1018144
06:00+18вюв3673100 0.0 1016121
09:00+20ю1666100 0.0 1015306
12:00+18юв3486100 0.5 101589
15:00+23ю696992 0.6 10121025
18:00+22юз4883100 0.4 1011712
21:00+19юз36956 1.8 1010107
29 июля, чт
чт2900:00+17зюз35961 0.9 101182
03:00+17зюз36950 0.9 101097
06:00+18з3109495 0.1 1010226
09:00+21зсз477667 0.1 1010379
12:00+26з5752100 0.0 10101608
15:00+27з684441 0.0 10102172
18:00+27з58495 0.0 10101204
21:00+20зсз22720 0.0 101019
30 июля, пт
пт3000:00+19з22775 0.0 101115
03:00+17з11810 0.0 101111
06:00+17юз11808 0.0 101215
09:00+24ю235720 0.0 1011388
12:00+28ююз454716 0.0 10111664
15:00+24юз376798 0.0 1010388
18:00+27ююз46582 0.1 1008962
21:00+20ююз129072 4.3 100913